Regional Weather Roundup
Issued by NWS

Home | Current Version | Previous Version | Text Only | Print | Product List | Glossary On
Versions: 1 2 3 4 5 6 7 8 9 10 11 12 13 14 15 16 17 18 19 20 21 22 23 24 25 26 27 28 29 30 31 32 33 34 35 36 37 38 39 40 41 42 43 44 45 46 47 48 49 50
000
ASUS43 KLOT 301109
RWRIL

ILLINOIS REGIONAL WEATHER ROUNDUP
NATIONAL WEATHER SERVICE CHICAGO/ROMEOVILLE IL
600 AM CDT TUE AUG 30 2016

NOTE: "FAIR" INDICATES FEW OR NO CLOUDS BELOW 12,000 FEET WITH NO
SIGNIFICANT WEATHER AND/OR OBSTRUCTIONS TO VISIBILITY.

* THESE STATIONS ARE NOT UNDER NWS QUALITY CONTROL. THEY ALSO MAY NOT
  REPORT WEATHER SUCH AS PRECIPITATION OR FOG.

ILZ001-002-007-009-015-016-024-301200-
NORTHWEST ILLINOIS

CITY           SKY/WX    TMP DP  RH WIND       PRES   REMARKS
MOLINE         TSTM      71  69  93 VRB7      30.18R VSB 3/4
STERLING*      CLOUDY    69  68  96 SE5       30.16F
SAVANNA*       CLOUDY    69  69  97 CALM      30.16R
$$

ILZ003-004-008-010-011-017-018-301200-
NORTH CENTRAL ILLINOIS

CITY           SKY/WX    TMP DP  RH WIND       PRES   REMARKS
ROCKFORD       CLOUDY    69  67  93 S6        30.17F
FREEPORT*      MOCLDY    65  65  99 CALM      30.18R FOG
ROCHELLE*      RAIN      68  67  98 SE7       30.17F
DE KALB*       LGT RAIN  68  67  95 SW6       30.19R
$$

ILZ005-006-012>014-019>023-301200-
NORTHEAST ILLINOIS

CITY           SKY/WX    TMP DP  RH WIND       PRES   REMARKS
CHICAGO-OHARE  LGT RAIN  73  72  96 CALM      30.14S FOG
CHICAGO-MIDWAY CLOUDY    76  72  87 SE3       30.14S FOG
AURORA         RAIN      71  69  93 CALM      30.17R FOG
LANSING*       CLOUDY    72  72 100 CALM      30.15S
JOLIET*        CLOUDY    73  73  98 NW3       30.16R FOG
WAUKEGAN       CLOUDY    72  70  93 CALM      30.15R FOG
DUPAGE AIRPORT RAIN      72  70  93 N7        30.16R FOG
KANKAKEE*      PTCLDY    70  70  98 CALM      30.15S FOG
WHEELING       LGT RAIN  73  71  93 NW5       30.16R FOG
MORRIS*        TSTM      69  68  96 W13G22    30.17R
ROMEOVILLE*    CLOUDY    72  72 100 NW6       30.16R FOG
$$

LMZ740>746-301200-
SOUTHERN LAKE MICHIGAN

STATION/POSITION SKY/WX   TEMP    WIND        PRES    VSBY  WAVE
                          AIR SEA DIR/SP/G                  HT/PER
                          (F)     (DEG/KT/KT) (MB)    (MI)  (FT/S)
SOUTHERN BUOY              75 76  170/  4/  4 1020.0F         0
WILMETTE HARBOR            74 74   70/  4/  6   N/A           0
HARRISON CRIB              76      80/  5/  5   N/A
BURNHAM HARBOR             73      CALM  /  3   N/A
CALUMET HARBOR             73     320/  1/  2 1020.4R
BURNS HARBOR               75     140/  1/  7 1021.0S
MICHIGAN CITY              72      10/ 10/ 12   N/A
MICHIGAN CITY 6N           74 74   80/ 12/ 16   N/A           0
ST. JOSEPH                 70 71  110/ 10/ 12 1021.1S         1
$$

ILZ025>027-034>036-040-047-049-050-058-095>099-301200-
WEST-CENTRAL ILLINOIS

CITY           SKY/WX    TMP DP  RH WIND       PRES   REMARKS
QUINCY         MOCLDY    71  70  96 CALM      30.14R FOG
GALESBURG*     MOCLDY    69  68  96 E3        30.15S
MACOMB*        MOCLDY    70  70 100 CALM      30.17R
JACKSONVILLE*  CLEAR     71  70  97 CALM      30.14R FOG
PITTSFIELD*    PTCLDY    72  71  97 CALM      30.15S
$$

ILZ028>032-037-038-041>044-048-051>054-059>061-301200-
CENTRAL ILLINOIS

CITY           SKY/WX    TMP DP  RH WIND       PRES   REMARKS
PONTIAC        CLOUDY    71  70  95 N21G28    30.19R
BLOOMINGTON    CLOUDY    71  70  96 SW3       30.17R
DECATUR        CLEAR     69  67  93 CALM      30.15R FOG
PEORIA         CLOUDY    71  70  96 NE8       30.16S
LACON*         TSTM      69  68  97 CALM      30.18S
LINCOLN*         N/A     70  70 100 CALM      30.15R FOG
SPRINGFIELD    CLEAR     72  70  93 CALM      30.14R FOG
TAYLORVILLE    FOG       69  69 100 CALM      30.14S VSB 1/4
$$

ILZ033-039-045-046-055>057-062-063-301200-
EAST-CENTRAL ILLINOIS

CITY           SKY/WX    TMP DP  RH WIND       PRES   REMARKS
CHAMPAIGN      CLEAR     70  68  93 E5        30.16R FOG
RANTOUL*       CLEAR     72  72  98 CALM      30.16R FOG
MATTOON        CLEAR     71  69  93 CALM      30.14R
PARIS*         CLEAR     67  67 100 CALM      30.16R FOG
$$

ILZ079-100>102-301200-
SOUTHWEST ILLINOIS

CITY           SKY/WX    TMP DP  RH WIND       PRES   REMARKS
ALTON          FOG       70  70  99 CALM      30.14R VSB 3/4
BELLEVILLE     CLEAR     71  71 100 N1        30.11S FOG
CAHOKIA*       FOG       72  70  93 CALM      30.12S VSB 1
SPARTA*        CLEAR     70  70  99 CALM      30.13R FOG
$$

ILZ064>066-069>071-074>076-080>082-084>086-088>090-092>094-301200-
SOUTH-CENTRAL ILLINOIS

CITY           SKY/WX    TMP DP  RH WIND       PRES   REMARKS
CARBONDALE     CLEAR     70  69  97 CALM      30.11R FOG
CAIRO*         CLEAR     71  70  98 CALM      30.09S
EFFINGHAM*     FOG       69  69 100 CALM      30.15R VSB 3/4
MARION         FOG       70  70 100 CALM      30.12R VSB 1/2
MT. VERNON     CLEAR     68  63  83 N3        30.13R
CENTRALIA*     FOG       68  68 100 CALM      30.12R VSB 1/2
SALEM*         CLEAR     69  68  96 CALM      30.13S FOG
METROPOLIS*    CLEAR     72  71  97 CALM      30.10R FOG
$$

ILZ067-068-072-073-078-083-087-091-301200-
SOUTHEAST ILLINOIS

CITY           SKY/WX    TMP DP  RH WIND       PRES   REMARKS
LAWRENCEVILLE  CLEAR     72  32  23 N5        30.13S HAZE
FLORA*         CLEAR     71  71  98 CALM      30.13R FOG
FAIRFIELD*       N/A     71  71 100 CALM      30.12R
HARRISBURG*    CLEAR     70  70  99 CALM      30.12R
ROBINSON*      FOG       66  66 100 CALM      30.14S VSB 1/4
CARMI*         CLEAR     70  70 100 CALM      30.11R FOG
$$

ABBREVIATIONS USED IN REMARKS
   TC - TEMPERATURE IN CELSIUS
  WCI - WIND CHILL INDEX
   HX - HEAT INDEX
  VSB - VISIBILITY
$$




USA.gov is the U.S. government's official web portal to all federal, state and local government web resources and services.